| time (UTC) | temp F | wind direction | speed MPH | gust MPH | rain 1hr in | rain 24hr in | rain mn in | humidity % | barometer mb |
| 20260903084529 | 50 | 202 | 0.0 | 0.0 | 0.00 | 0.31 | 0.00 | 99 | 1013.3 |
| 20260903083109 | 50 | 188 | 0.0 | 0.0 | 0.00 | 0.31 | 0.00 | 99 | 1013.2 |
| 20260903081532 | 50 | 157 | 0.0 | 0.0 | 0.00 | 0.31 | 0.00 | 99 | 1013.0 |
| 20260903080034 | 50 | 161 | 0.0 | 1.0 | 0.00 | 0.31 | 0.00 | 98 | 1013.0 |
| 20260903074534 | 49 | 221 | 0.0 | 2.0 | 0.00 | 0.31 | 0.00 | 98 | 1012.9 |
| 20260903073109 | 50 | 213 | 0.0 | 2.0 | 0.00 | 0.31 | 0.00 | 98 | 1012.7 |
| 20260903071532 | 51 | 202 | 0.0 | 2.0 | 0.00 | 0.31 | 0.00 | 98 | 1012.6 |
| 20260903070034 | 51 | 174 | 0.0 | 2.0 | 0.00 | 0.31 | 0.00 | 98 | 1012.7 |
| 20260903063033 | 51 | 122 | 0.0 | 1.0 | 0.00 | 0.31 | 0.31 | 98 | 1012.7 |
| 20260903061532 | 51 | 135 | 0.0 | 0.0 | 0.00 | 0.31 | 0.31 | 98 | 1012.8 |
| 20260903060035 | 51 | 156 | 0.0 | 3.0 | 0.00 | 0.31 | 0.31 | 98 | 1012.7 |
| 20260903054531 | 51 | 230 | 0.0 | 2.0 | 0.00 | 0.31 | 0.31 | 98 | 1012.7 |
| 20260903051533 | 53 | 226 | 0.0 | 2.0 | 0.00 | 0.31 | 0.31 | 97 | 1012.5 |
| 20260903050036 | 53 | 118 | 0.0 | 3.0 | 0.00 | 0.31 | 0.31 | 97 | 1012.4 |
| 20260903043034 | 54 | 88 | 0.0 | 2.0 | 0.00 | 0.31 | 0.31 | 97 | 1012.2 |
| 20260903041536 | 55 | 178 | 0.0 | 0.0 | 0.00 | 0.31 | 0.31 | 97 | 1011.8 |
| 20260903034642 | 56 | 227 | 0.0 | 0.0 | 0.01 | 0.31 | 0.31 | 96 | 1011.4 |
| 20260903024532 | 57 | 157 | 0.0 | 0.0 | 0.13 | 0.30 | 0.28 | 95 | 1011.1 |
| 20260903023035 | 58 | 157 | 0.0 | 2.0 | 0.11 | 0.28 | 0.24 | 95 | 1011.0 |
| 20260903021534 | 58 | 29 | 0.0 | 1.0 | 0.07 | 0.24 | 0.21 | 95 | 1011.0 |
| 20260903020035 | 58 | 22 | 0.0 | 0.0 | 0.04 | 0.21 | 0.17 | 95 | 1010.7 |
| 20260903013035 | 58 | 22 | 0.0 | 0.0 | 0.03 | 0.17 | 0.17 | 95 | 1010.5 |
| 20260903011532 | 58 | 22 | 0.0 | 0.0 | 0.04 | 0.17 | 0.17 | 94 | 1010.5 |
| 20260903010037 | 58 | 22 | 0.0 | 0.0 | 0.05 | 0.17 | 0.15 | 94 | 1010.6 |
| 20260903004537 | 59 | 22 | 0.0 | 0.0 | 0.04 | 0.15 | 0.14 | 94 | 1010.7 |
| 20260903003037 | 59 | 22 | 0.0 | 0.0 | 0.03 | 0.14 | 0.13 | 93 | 1010.7 |
| 20260903001610 | 59 | 22 | 0.0 | 1.0 | 0.03 | 0.13 | 0.12 | 93 | 1010.6 |
| 20260903000036 | 59 | 22 | 0.0 | 1.0 | 0.03 | 0.12 | 0.11 | 92 | 1010.6 |
| 20260902234536 | 60 | 22 | 0.0 | 1.0 | 0.02 | 0.11 | 0.11 | 92 | 1010.5 |
| 20260902233033 | 61 | 4 | 0.0 | 1.0 | 0.02 | 0.11 | 0.10 | 92 | 1010.7 |
| 20260902224534 | 59 | 360 | 0.0 | 2.0 | 0.01 | 0.09 | 0.09 | 92 | 1010.7 |
| 20260902223153 | 60 | 256 | 0.0 | 2.0 | 0.02 | 0.09 | 0.09 | 92 | 1010.8 |
| 20260902221533 | 60 | 247 | 0.0 | 0.0 | 0.03 | 0.09 | 0.08 | 91 | 1010.7 |
| 20260902220034 | 60 | 275 | 0.0 | 1.0 | 0.03 | 0.08 | 0.08 | 91 | 1010.5 |
| 20260902214608 | 61 | 347 | 0.0 | 0.0 | 0.04 | 0.08 | 0.07 | 91 | 1010.4 |
| 20260902213036 | 60 | 360 | 0.0 | 0.0 | 0.03 | 0.07 | 0.06 | 90 | 1010.4 |
| 20260902210035 | 60 | 104 | 0.0 | 2.0 | 0.03 | 0.05 | 0.04 | 89 | 1010.5 |
| 20260902204534 | 60 | 64 | 0.0 | 3.0 | 0.02 | 0.04 | 0.04 | 88 | 1010.5 |
| 20260902203032 | 61 | 26 | 0.0 | 2.0 | 0.03 | 0.04 | 0.02 | 87 | 1010.7 |
| 20260902201535 | 61 | 24 | 0.0 | 3.0 | 0.01 | 0.02 | 0.02 | 86 | 1010.6 |
| 20260902200035 | 62 | 340 | 0.0 | 0.0 | 0.02 | 0.02 | 0.02 | 84 | 1010.6 |
| 20260902194535 | 63 | 258 | 0.0 | 0.0 | 0.02 | 0.02 | 0.01 | 84 | 1010.5 |
| 20260902193037 | 64 | 247 | 0.0 | 0.0 | 0.01 | 0.01 | 0.01 | 77 | 1010.5 |
| 20260902191536 | 65 | 241 | 0.0 | 2.0 | 0.01 | 0.01 | 0.00 | 72 | 1010.5 |
| 20260902190035 | 65 | 225 | 0.0 | 2.0 | 0.00 | 0.00 | 0.00 | 71 | 1010.3 |
| 20260902183108 | 66 | 247 | 0.0 | 1.0 | 0.00 | 0.00 | 0.00 | 68 | 1010.2 |
| 20260902181535 | 65 | 309 | 0.0 | 0.0 | 0.00 | 0.00 | 0.00 | 70 | 1010.2 |
| 20260902180145 | 66 | 357 | 0.0 | 2.0 | 0.00 | 0.00 | 0.00 | 69 | 1010.3 |
| 20260902174545 | 66 | 350 | 0.0 | 2.0 | 0.00 | 0.00 | 0.00 | 68 | 1010.3 |
| 20260902174536 | 66 | 358 | 0.0 | 3.0 | 0.00 | 0.00 | 0.00 | 69 | 1010.4 |
| 20260902170036 | 67 | 280 | 0.0 | 1.0 | 0.00 | 0.00 | 0.00 | 71 | 1010.7 |
| 20260902164609 | 63 | 172 | 0.0 | 1.0 | 0.00 | 0.00 | 0.00 | 73 | 1011.0 |
| 20260902163109 | 63 | 103 | 0.0 | 2.0 | 0.00 | 0.00 | 0.00 | 73 | 1011.2 |
| 20260902161536 | 63 | 257 | 0.0 | 2.0 | 0.00 | 0.00 | 0.00 | 75 | 1011.4 |
| 20260902160035 | 63 | 231 | 0.0 | 0.0 | 0.00 | 0.00 | 0.00 | 77 | 1011.6 |
| 20260902154534 | 63 | 225 | 0.0 | 0.0 | 0.00 | 0.00 | 0.00 | 83 | 1011.7 |
| 20260902153034 | 60 | 225 | 0.0 | 0.0 | 0.00 | 0.00 | 0.00 | 89 | 1011.9 |
| 20260902151533 | 57 | 225 | 0.0 | 0.0 | 0.00 | 0.00 | 0.00 | 92 | 1012.0 |
| 20260902150152 | 56 | 225 | 0.0 | 0.0 | 0.00 | 0.00 | 0.00 | 94 | 1012.2 |
| 20260902144535 | 54 | 225 | 0.0 | 2.0 | 0.00 | 0.00 | 0.00 | 96 | 1012.2 |
| 20260902143028 | 51 | 120 | 0.0 | 1.0 | 0.00 | 0.00 | 0.00 | 96 | 1012.3 |
| 20260902141531 | 50 | 112 | 0.0 | 0.0 | 0.00 | 0.00 | 0.00 | 96 | 1012.4 |
| 20260902140036 | 49 | 117 | 0.0 | 0.0 | 0.00 | 0.00 | 0.00 | 96 | 1012.3 |
| 20260902134612 | 48 | 202 | 0.0 | 0.0 | 0.00 | 0.00 | 0.00 | 95 | 1012.4 |
| 20260902133037 | 47 | 152 | 0.0 | 2.0 | 0.00 | 0.00 | 0.00 | 95 | 1012.5 |
| 20260902131609 | 47 | 196 | 0.0 | 2.0 | 0.00 | 0.00 | 0.00 | 95 | 1012.5 |
| 20260902130033 | 47 | 210 | 0.0 | 1.0 | 0.00 | 0.00 | 0.00 | 94 | 1012.5 |
| 20260902120035 | 49 | 160 | 0.0 | 2.0 | 0.00 | 0.00 | 0.00 | 93 | 1012.6 |
| 20260902114531 | 49 | 193 | 0.0 | 1.0 | 0.00 | 0.00 | 0.00 | 93 | 1012.7 |
| 20260902113035 | 49 | 216 | 0.0 | 1.0 | 0.00 | 0.00 | 0.00 | 92 | 1012.8 |
| 20260902111531 | 50 | 232 | 0.0 | 1.0 | 0.00 | 0.00 | 0.00 | 92 | 1012.7 |
| 20260902110108 | 51 | 243 | 0.0 | 1.0 | 0.00 | 0.00 | 0.00 | 91 | 1012.8 |
| 20260902104535 | 51 | 247 | 0.0 | 2.0 | 0.00 | 0.00 | 0.00 | 91 | 1012.9 |
| 20260902103035 | 51 | 209 | 0.0 | 3.0 | 0.00 | 0.00 | 0.00 | 91 | 1013.0 |
| 20260902101535 | 52 | 208 | 0.0 | 1.0 | 0.00 | 0.00 | 0.00 | 91 | 1013.0 |
| 20260902100109 | 52 | 208 | 0.0 | 0.0 | 0.00 | 0.00 | 0.00 | 91 | 1013.2 |
| 20260902094535 | 52 | 180 | 0.0 | 0.0 | 0.00 | 0.00 | 0.00 | 90 | 1013.2 |
| 20260902093034 | 52 | 247 | 0.0 | 0.0 | 0.00 | 0.00 | 0.00 | 89 | 1013.4 |
| 20260902091534 | 52 | 247 | 0.0 | 1.0 | 0.00 | 0.00 | 0.00 | 88 | 1013.5 |
| 20260902090036 | 53 | 225 | 0.0 | 2.0 | 0.00 | 0.00 | 0.00 | 86 | 1013.3 |